#timestamp,LO_Frequency,Hit,StdDev 
1551430815.7,286046998.7,N
1551430835.5,286046998.8,N
1551430855.3,286047002.8,N
1551430875.2,286046998.5,N
1551430895.0,286046996.5,N
1551430895.9,286046996.5,N
1551430915.7,286046996.6,N
1551430935.6,286046997.1,N
1551430955.4,286046998.0,N
1551430975.3,286046997.4,N
1551430995.1,286046995.3,N
1551430996.0,286046995.3,N
1551431015.8,286046997.5,N
1551431035.7,286046997.5,N
1551431055.5,286046997.1,N
1551431075.3,286046994.9,N
1551431095.2,286046996.7,N
1551431115.0,286046997.5,N
1551431115.9,286046997.5,N
1551431135.8,286046996.8,N
1551431155.6,286046996.8,N
1551431175.4,286046997.4,N
1551431195.3,286046994.9,Y
1551431215.1,286046998.8,P
1551431235.9,286047000.8,N
1551431255.7,286046999.2,N
1551431275.5,286046998.9,N
1551431295.4,286046999.0,N
1551431315.2,286046996.5,Y
1551431335.0,286046998.8,P
1551431335.9,286046998.8,P
1551431355.8,286046998.5,P
1551431375.6,286046998.1,Y
1551431395.5,286047002.3,P
1551431415.3,286047001.9,N
1551431465.2,286047003.3,E
1551431475.1,286047003.8,N
1551431476.0,286047003.8,P
1551431495.8,286047004.2,P
1551431515.7,286047003.7,Y
1551431535.5,286047001.0,P
1551431555.3,286047000.0,N
1551431575.2,286047000.4,N
1551431595.0,286047000.0,N
1551431595.9,286047000.0,N
1551431615.8,286047000.0,N
1551431635.6,286047002.1,N
1551431655.4,286047003.9,N
1551431675.3,286047006.9,Y
1551431695.1,286047006.3,P
1551431715.8,286047005.4,N
1551431735.7,286047005.3,N
1551431755.5,286047004.6,N
1551431775.4,286047006.3,Y
1551431795.2,286047005.9,P
1551431815.0,286047005.3,P
1551431815.9,286047005.3,P
1551431835.8,286047009.1,Y
1551431855.6,286047002.0,P
1551431875.5,286047002.4,N
1551431895.3,286047002.2,N
1551431915.1,286047006.0,Y
1551431935.9,286047001.7,P
1551431955.7,286047000.4,N
1551431975.5,286046998.3,N
1551431995.4,286046997.3,N
1551432015.2,286046996.2,N
1551432035.1,286046993.8,N
1551432036.0,286046993.8,N
1551432055.8,286046993.4,N
1551432075.6,286046993.6,N
1551432095.5,286046994.0,N
1551432115.3,286046996.4,N
1551432135.1,286046996.0,N
1551432155.9,286046993.4,N
1551432175.7,286046992.4,N
1551432195.6,286046990.3,Y
1551432215.4,286046992.2,P
1551432235.2,286046990.2,P
1551432255.1,286046992.8,N
1551432256.0,286046992.8,Y
1551432275.8,286046999.4,P
1551432295.7,286046998.4,N
1551432315.5,286046996.6,N
1551432335.3,286046996.5,N
1551432355.2,286046997.0,N
1551432375.0,286046994.9,N
1551432375.9,286046994.9,N
1551432395.7,286046999.6,N
1551432415.6,286046999.4,N
1551432435.4,286046999.2,N
1551432455.3,286046998.2,N
1551432475.1,286047002.8,N
1551432476.0,286047002.8,N
1551432495.8,286047002.8,N
1551432515.7,286047003.8,N
1551432535.5,286047003.5,N
1551432555.4,286047003.2,N
1551432575.2,286047004.2,N
1551432595.0,286047001.8,N
1551432595.9,286047001.8,N
1551432615.8,286047001.4,N
1551432635.6,286047004.2,N
1551432655.4,286047004.2,N
1551432675.3,286047001.5,N
1551432695.1,286047004.2,N
1551432715.9,286047003.1,N
1551432735.7,286047001.3,N
1551432755.5,286047001.4,N
1551432775.4,286047003.7,N
1551432795.2,286047003.7,N
1551432815.0,286047005.2,N
1551432815.9,286047005.2,N
1551432835.8,286047007.6,N
1551432855.6,286047009.2,Y
1551432875.5,286047005.3,P
1551432895.3,286047007.3,P
1551432915.1,286047009.1,P
1551432935.9,286047007.2,N
1551432955.7,286047005.7,N
1551432975.5,286047004.8,N
1551432995.4,286047004.8,N
1551433015.2,286047007.3,Y
1551433035.1,286046999.8,P
1551433036.0,286046999.8,N
1551433055.8,286047001.1,N
1551433075.6,286047011.9,Y
1551433095.5,286046997.4,P
1551433115.3,286046997.2,N
1551433135.2,286046999.4,N
1551433155.9,286046996.6,N
1551433175.7,286046997.5,N
1551433195.6,286046995.7,N
1551433215.4,286046995.7,N
1551433235.2,286046997.6,N
1551433255.1,286046998.8,N
1551433256.0,286046998.8,N
1551433275.8,286046999.1,N
1551433295.7,286046998.1,N
1551433315.5,286046998.4,N
1551433335.3,286046996.7,N
1551433355.2,286046996.6,N
1551433375.0,286046997.7,N
1551433375.9,286046997.7,N
1551433395.8,286046997.5,N
1551433415.6,286046997.5,N
1551433435.4,286046997.7,N
1551433455.3,286046996.6,N
1551433475.1,286046997.5,N
1551433495.8,286046996.8,N
1551433515.7,286046996.7,N
1551433535.5,286046996.6,N
1551433555.4,286046997.4,N
1551433575.2,286046997.8,N
1551433595.0,286046997.9,N
1551433595.9,286046997.9,N
1551433615.8,286046997.1,N
1551433635.6,286046997.2,Y
1551433655.5,286047001.0,P
1551433675.3,286047001.1,N
1551433695.1,286047002.6,N
1551433715.9,286047002.4,N
1551433735.7,286047001.9,N
1551433755.5,286047003.1,N
1551433775.4,286047001.3,N
1551433795.2,286047002.2,N
1551433815.1,286047000.1,N
1551433816.0,286047000.1,N
1551433835.8,286047000.8,N
1551433855.6,286047000.9,N
1551433875.5,286047000.6,N
1551433895.3,286047000.5,N
1551433915.1,286047001.0,N
1551433935.9,286047000.0,N
1551433955.7,286047000.9,N
1551433975.6,286047001.8,N
1551433995.4,286047000.0,N
1551434015.2,286047000.3,N
1551434035.1,286046998.7,N
1551434036.0,286046998.7,N
1551434055.8,286047002.8,N
1551434075.7,286047003.0,N
1551434095.5,286047007.4,Y
1551434115.3,286047006.5,P
1551434135.2,286047006.0,N
1551434155.0,286047003.6,N
1551434155.9,286047003.6,N
1551434175.8,286047001.5,N
1551434195.6,286047003.8,N
1551434215.4,286047001.5,N
1551434235.3,286046998.5,N
1551434255.1,286047000.1,N
1551434275.8,286047001.5,N
1551434295.7,286047001.1,N
1551434315.5,286047001.2,N
1551434335.4,286046998.9,N
1551434355.2,286047002.1,N
1551434375.0,286047002.5,N
1551434375.9,286047002.5,N
1551434395.8,286047003.7,N
